Regional Weather Roundup
Issued by NWS Bismarck, ND

Home | Current Version | Previous Version | Text Only | Print | Product List | Glossary On
Versions: 1 2 3 4 5 6 7 8 9 10 11 12 13 14 15 16 17 18 19 20 21 22 23 24 25 26 27 28 29 30 31 32 33 34 35 36 37 38 39 40 41 42 43 44 45 46 47 48 49 50
000
ASUS43 KBIS 131210
RWRBIS

NWR BROADCAST TEXT
NATIONAL WEATHER SERVICE BISMARCK ND
600 AM CST WED DEC 13 2017

NOTE: "FAIR" INDICATES FEW OR NO CLOUDS BELOW 12,000 FEET WITH NO
SIGNIFICANT WEATHER AND/OR OBSTRUCTIONS TO VISIBILITY.


CITY           SKY/WX    TMP DP  RH WIND       PRES   REMARKS
WILLISTON      FAIR      34  27  75 NW23G32   29.95R
MINOT          FAIR      34  28  79 NW25G33   29.80R
MINOT AFB      CLEAR     33  28  82 NW22G29   29.79R
BISMARCK       FAIR      37  30  75 NW25G33   29.81R
DICKINSON      FAIR      32  26  78 NW22      29.89R WCI  19
GARRISON         N/A     33  28  81 NW26G33   29.80R WCI  20
HETTINGER ARPT CLEAR     33  24  69 NW21G28   29.93R
JAMESTOWN      CLOUDY    35  32  88 NW23G33   29.67R
CARRINGTON     CLOUDY    36  32  87 NW23G30   29.71R
HAZEN          FAIR      36  30  80 NW17      29.87R
LINTON           N/A     37  27  65 NW22G29   29.78R
MANDAN         PTSUNNY   36  30  80 NW22G32   29.81R
OAKES            N/A     36  36 100 NW29G38   29.64R
RUGBY          CLOUDY    34  32  93 NW17      29.73R
STANLEY        FAIR      32  32 100 NW18G33   29.88R
TIOGA          FAIR      32  32 100 NW24      29.90R WCI  19
WATFORD CITY   FAIR      34  28  80 NW21G28   29.93R
$$

CITY           SKY/WX    TMP DP  RH WIND       PRES   REMARKS
GRAND FORKS    FLURRIES  28  25  88 N31G45    29.64R WCI  12
GRAND FORKS AF CLOUDY    30  27  88 N28G39    29.65R WCI  15
DEVILS LAKE    CLOUDY    34  30  85 NW22      29.68R
FARGO          CLOUDY    31  28  89 N26G38    29.60R WCI  17
CANDO          CLOUDY    34  34 100 NW23G31   29.71R
CAVALIER       CLOUDY    27  23  86 N24G35    29.68R WCI  12
GRAFTON        CLOUDY    27  25  93 N23G36    29.68R WCI  12
GWINNER          N/A     36  34  93 N21G33    29.62R
LANGDON        CLOUDY    30  30 100 N20G35    29.66R WCI  18
ROLLA          CLOUDY    32  30  93 NW29G38   29.70R WCI  18
WALHALLA       FAIR      28  28 100 N18       29.70R WCI  16
$$

CITY           SKY/WX    TMP DP  RH WIND       PRES   REMARKS
ABERDEEN       MOCLDY    38  32  79 NW26G36   29.68R
MOBRIDGE       CLEAR     41  29  62 NW28G37   29.76R
BUFFALO          N/A     36  24  62 NW25G38   29.92R
RAPID CITY     CLEAR     44  16  32 NW38G51   29.94R
GLASGOW        MOCLDY    32  24  72 NW15      30.10R
SIDNEY         PTCLDY    34  26  72 NW20      29.99R
WOLF POINT     CLOUDY    34  25  69 W13       30.07R
GLENDIVE       CLEAR     34  25  69 NW18G26   30.05R
MILES CITY     CLEAR     36  20  52 NW10      30.11R
BAKER          CLEAR     33  26  75 NW20G26   30.03R
$$

CITY           SKY/WX    TMP DP  RH WIND       PRES   REMARKS
BILLINGS       CLEAR     36  15  42 W8        30.19R
GREAT FALLS    CLOUDY    24  13  62 SW9       30.24S WCI  14
REGINA         PTCLDY    30  27  86 NW14      29.95R WCI  20
ESTEVAN        MOCLDY    32  28  86 NW18G24   29.89R
$$





USA.gov is the U.S. government's official web portal to all federal, state and local government web resources and services.